Location: Augustenthal
(51.7167°N, 10.2833°E)
Time: 08:25:40
(UTC+00:00)

BREEZE-M R/B - Pass Details

Date: 18 May 2021
Orbit: 311 x 4501 km, 49.7° (Epoch: 19 June)

Event Time Altitude Azimuth Distance (km) Brightness Sun altitude
Rises 21:31:41 0° 275° (W) 2,043 6.2 -15.0°
Reaches altitude 10° 21:33:32 10° 264° (W) 1,219 4.8 -15.1°
Enters shadow 21:35:37 31° 206° (SSW) 637 2.8 -15.3°
